Temperature
17 17 17 17 17 16 16 16 16 16 16 17 17 17 17 17 16 16 16 16 16 16 16 16 16 16 16 16 16 16 16 16 15 15 15 15 15 15
17 17 17 16 16 16 16 16 16 15 15 16 16 16 16 16 16 16 16 16 16 16 16 16 16 16 16 16 16 15 15 15 15 15 15 15 15 15
16 16 16 16 16 16 16 16 15 15 15 16 16 16 16 16 16 16 16 16 16 16 16 16 16 15 15 15 15 15 15 15 15 15 15 15 15 15
16 16 16 16 16 16 15 15 15 15 15 15 15 15 15 15 15 15 16 16 15 15 15 15 15 15 15 15 15 15 15 15 15 15 15 15 15 14
16 16 16 15 15 15 15 15 15 15 15 15 15 15 15 15 15 15 15 15 15 15 15 15 15 15 15 15 15 15 15 15 14 14 14 14 14 14
15 15 15 15 15 15 15 15 15 14 14 14 14 14 14 14 14 15 15 15 15 15 15 15 15 15 14 14 14 14 14 14 14 14 14 14 14 14
15 15 15 15 15 14 14 14 14 14 14 14 14 14 14 14 14 14 14 14 14 14 14 14 14 14 14 14 14 14 14 14 14 14 14 14 14 13
15 15 15 14 14 14 14 14 14 14 14 14 14 14 14 14 14 14 14 13 14 14 14 14 14 14 14 14 14 14 13 13 13 13 13 13 13 13
15 15 14 14 14 14 14 14 14 14 14 14 13 14 14 13 13 13 13 13 13 13 13 13 13 13 14 13 13 13 13 13 13 13 13 13 13 13
14 14 14 14 14 14 14 14 14 14 13 13 13 13 13 13 13 13 13 13 13 13 13 13 13 13 13 13 13 13 13 13 13 13 12 12 12 12
14 14 14 14 14 14 13 13 13 14 13 13 13 13 13 13 13 13 13 13 13 13 12 12 13 12 12 13 13 12 12 12 12 12 12 12 12 12
14 14 14 14 14 13 13 13 13 13 13 13 13 13 13 13 13 13 13 12 12 12 12 12 12 12 12 12 12 12 12 12 12 12 12 12 11 11
14 14 14 14 14 13 13 13 13 13 13 13 13 13 13 13 13 13 12 12 12 12 12 12 12 12 11 11 12 12 12 12 12 12 12 11 11 11
13 13 13 13 13 13 13 13 13 13 13 13 13 13 12 12 12 12 12 12 12 12 12 11 11 11 11 11 11 11 11 11 11 11 11 11 11 11
13 13 13 13 13 13 13 13 12 12 12 12 12 12 12 12 12 12 12 12 12 12 11 11 11 11 11 11 11 11 11 11 11 11 11 11 11 10
13 13 13 13 13 13 13 13 12 12 12 12 12 12 12 12 12 12 11 11 11 11 11 11 11 11 11 11 11 11 11 10 11 11 10 10 10 10
13 13 13 13 12 12 12 12 12 12 12 12 12 12 11 11 11 11 11 11 11 11 11 11 11 11 11 10 10 10 10 10 10 10 10 10 10 10
12 12 12 12 12 12 12 12 12 12 12 12 11 11 11 11 11 11 11 11 10 10 10 10 10 10 10 10 10 10 10 10 10 10 10 10 10 10
12 11 11 11 11 11 11 11 11 11 11 11 11 11 11 11 11 11 10 10 10 10 10 10 10 10 9 10 10 10 10 10 10 10 10 10 10 10
11 11 11 11 11 11 11 11 11 11 11 11 11 11 11 11 10 10 10 10 10 10 10 10 10 10 9 9 9 10 10 9 9 9 9 9 9 9
11 11 11 11 10 10 10 10 10 10 10 10 10 10 10 10 10 10 10 10 9 9 9 9 9 9 9 9 9 9 9 9 9 9 9 9 9 9
11 10 10 10 10 10 10 10 10 10 10 10 10 10 10 10 10 9 9 9 9 9 9 9 9 9 9 9 9 9 9 9 9 9 9 9 9 9
10 10 10 10 10 10 9 9 9 9 9 9 9 9 9 9 9 9 9 9 9 9 9 9 9 9 8 8 8 9 9 9 9 9 9 9 9 8
Wind_Speed
2 1 2 2 1 1 2 2 2 2 4 3 3 3 3 4 5 6 7 10 11 11 11 11 11 12 12 12 12 12 12 11 12 12 12 12 12 12
2 1 2 2 2 1 1 1 2 3 3 3 3 3 3 4 5 6 7 9 10 10 10 10 10 11 11 12 13 13 12 12 12 12 12 12 12 12
2 1 2 1 1 1 1 1 1 2 3 4 3 2 2 2 3 4 5 5 6 7 8 8 8 9 10 11 11 11 12 12 12 12 13 13 12 12
2 2 3 2 1 1 1 1 2 2 3 4 3 2 3 3 2 3 3 3 4 6 7 8 9 9 9 9 10 10 10 11 11 12 12 13 13 12
2 3 4 3 3 2 2 2 3 3 2 3 4 3 2 2 2 3 3 2 3 5 6 6 7 7 8 8 9 9 10 10 11 11 11 11 11 12
3 3 4 4 5 4 3 3 3 2 2 2 3 3 3 2 1 2 3 2 3 3 3 5 6 7 7 7 9 10 10 10 10 10 11 11 11 11
3 3 4 5 5 4 4 3 3 3 3 3 3 3 3 2 2 2 3 3 3 2 2 2 2 3 4 7 9 10 10 10 10 10 10 10 11 11
4 3 4 4 5 5 5 5 5 4 4 4 4 4 5 4 3 3 2 2 3 2 1 3 2 3 3 5 8 9 10 10 10 10 10 10 10 10
4 4 4 4 4 3 5 6 6 7 6 5 5 6 5 5 4 4 3 3 4 4 2 3 3 4 4 6 8 10 10 10 10 10 10 10 10 10
3 4 4 4 4 3 4 4 5 6 6 5 5 6 6 6 6 6 5 4 3 3 2 3 3 3 4 4 9 11 11 11 11 11 10 10 10 10
4 4 4 5 6 5 3 5 6 6 6 6 7 7 8 7 5 2 2 2 3 3 2 3 2 2 3 4 6 10 11 10 11 11 10 10 10 9
4 5 6 6 6 5 4 5 6 7 5 6 6 7 6 6 5 4 5 4 3 3 3 2 2 1 2 3 3 4 6 8 10 11 10 10 8 5
4 4 5 7 7 7 6 6 8 7 4 4 4 5 4 3 3 3 4 5 4 4 3 2 2 2 3 3 3 3 3 3 4 5 8 9 9 7
5 4 5 7 7 7 6 7 8 5 3 3 3 4 4 4 4 4 3 4 5 5 5 3 3 3 3 3 4 3 2 2 2 3 3 5 6 8
5 6 7 7 6 5 6 6 5 3 2 3 4 5 4 4 3 2 2 1 1 3 3 3 3 3 3 4 3 2 2 2 3 2 2 3 3 3
4 4 5 5 3 3 3 3 3 3 4 4 4 4 2 2 2 1 1 1 1 3 3 2 2 3 3 3 3 3 3 2 2 3 2 2 2 3
2 1 1 2 2 2 2 3 2 2 3 3 3 2 2 2 2 2 1 1 1 2 3 3 2 1 1 2 2 3 3 2 3 2 2 1 2 3
2 1 2 2 3 3 3 3 3 3 3 3 2 2 2 2 2 2 1 1 2 2 2 2 1 2 2 2 2 3 2 2 2 1 1 1 2 3
2 2 2 3 3 3 3 2 3 3 2 2 2 2 2 2 2 2 1 1 1 2 2 2 1 0 1 4 3 1 2 2 1 1 1 2 2 3
2 2 2 2 2 2 2 2 2 2 1 1 2 2 2 2 2 2 2 2 2 2 2 2 1 2 3 3 3 3 2 2 2 2 2 1 2 3
2 2 2 1 1 2 2 2 1 1 1 1 1 1 1 1 1 2 2 2 1 1 2 3 4 4 2 0 1 2 2 1 2 3 2 1 1 1
2 2 2 2 1 1 1 1 1 1 1 1 2 2 2 1 1 1 1 1 2 2 2 2 2 2 1 0 1 2 3 3 2 1 0 3 3 3
3 2 2 2 2 1 1 2 2 2 2 1 1 1 1 1 1 1 1 1 1 2 1 1 2 1 1 1 1 1 2 2 2 2 2 3 1 3
Wind_Direction
242 250 256 267 265 230 204 185 198 264 279 275 285 280 260 244 253 247 246 249 245 242 237 236 235 235 234 232 231 230 228 227 227 227 229 231 234 235
243 256 270 262 267 260 226 194 189 205 256 272 262 278 270 270 264 254 253 257 252 246 241 240 241 242 240 236 233 231 229 228 229 230 230 230 231 234
265 239 260 250 259 276 250 241 233 202 244 275 266 277 264 269 282 260 259 252 252 247 245 244 246 247 245 240 234 230 231 232 233 234 234 234 232 233
261 249 262 260 253 253 244 252 245 229 220 265 283 276 261 258 262 268 281 274 253 253 251 250 249 249 244 239 232 231 232 235 235 235 236 237 237 237
248 243 252 252 255 250 241 242 245 256 230 240 272 269 266 283 292 290 294 287 281 268 259 256 257 257 248 240 233 233 235 236 236 234 234 235 235 235
260 256 257 249 245 243 243 241 236 245 250 252 270 277 270 273 257 274 297 291 289 287 271 264 259 257 252 245 239 237 237 238 237 236 235 236 238 239
259 258 249 257 263 252 243 231 223 228 241 249 263 275 272 281 266 253 269 279 281 262 273 279 265 254 250 250 245 239 237 238 238 238 238 239 240 241
248 257 261 268 270 268 266 251 234 230 235 238 252 259 261 255 255 254 254 282 284 259 233 272 249 256 250 236 243 242 240 237 237 238 240 241 241 241
238 246 262 275 266 257 273 281 275 267 251 236 240 249 250 243 236 247 240 235 249 252 226 260 254 259 255 248 243 243 242 238 238 239 239 239 238 241
250 239 240 264 261 248 256 276 278 276 270 256 243 249 250 241 227 230 234 247 267 260 200 238 252 252 264 252 242 240 242 242 242 240 239 238 238 240
261 255 244 248 261 252 245 264 279 282 280 275 275 270 272 267 247 226 228 225 268 269 227 212 248 269 267 259 250 243 245 246 243 242 240 237 235 237
265 264 257 252 256 248 238 245 262 272 281 293 293 291 283 278 258 218 210 219 245 263 240 207 240 258 283 267 253 255 251 249 245 243 241 238 229 216
257 263 265 263 259 255 242 239 250 259 267 273 282 289 288 277 264 242 219 209 219 248 239 200 226 221 225 269 280 260 241 242 238 247 241 236 225 207
248 253 262 266 265 261 251 255 262 265 262 272 275 275 272 267 265 256 246 228 219 232 243 212 215 219 225 257 271 269 257 243 232 242 235 234 231 225
253 259 269 272 267 265 265 266 264 246 244 255 261 262 255 253 260 270 282 279 282 271 262 237 223 230 219 235 248 253 266 262 228 225 226 217 221 215
272 284 285 275 268 270 286 277 248 231 228 244 254 259 267 270 266 260 270 284 305 305 308 291 241 215 239 243 236 252 241 233 230 227 219 219 220 216
249 298 331 323 307 298 292 278 261 253 244 246 249 263 264 261 263 264 262 270 269 278 302 322 332 308 213 220 244 248 245 242 234 213 188 207 245 239
164 213 262 264 267 276 276 279 267 255 252 244 238 239 249 250 260 269 250 243 262 273 276 286 331 353 349 319 233 228 249 249 246 209 173 190 266 272
173 229 244 254 264 274 271 263 267 265 255 238 233 243 246 243 239 253 260 264 273 273 275 276 291 259 298 301 301 236 219 245 233 232 220 209 238 259
214 231 243 256 267 279 281 280 291 309 305 284 265 264 252 239 238 236 231 231 250 274 289 297 277 250 241 261 278 302 279 221 204 219 235 237 261 271
230 233 245 255 276 291 294 286 279 284 296 287 285 281 277 261 262 248 235 241 251 262 278 284 280 276 274 22 348 316 321 293 206 210 211 207 257 296
225 229 235 239 252 271 287 294 299 294 295 291 286 278 262 239 243 256 250 248 251 252 266 293 324 355 21 193 265 283 305 328 350 27 134 188 187 203
219 224 227 234 236 247 251 256 262 270 268 270 279 280 276 270 263 239 257 247 251 266 291 322 345 360 330 265 257 283 307 320 337 19 7 8 155 192
Height
1518 1517 1517 1517 1517 1517 1517 1517 1517 1515 1513 1513 1513 1513 1512 1512 1512 1512 1511 1511 1511 1510 1510 1510 1510 1510 1510 1510 1510 1510 1510 1510 1511 1511 1511 1511 1512 1512
1515 1515 1514 1514 1514 1513 1513 1514 1513 1513 1511 1510 1510 1509 1509 1509 1509 1508 1508 1507 1507 1507 1506 1506 1506 1506 1506 1505 1506 1506 1506 1506 1507 1507 1507 1507 1508 1508
1513 1512 1512 1511 1511 1510 1511 1511 1510 1510 1508 1508 1507 1507 1506 1505 1505 1505 1504 1503 1503 1502 1502 1502 1501 1501 1501 1501 1501 1502 1502 1502 1503 1503 1503 1503 1503 1504
1510 1510 1509 1509 1508 1508 1507 1507 1507 1506 1506 1504 1504 1503 1502 1502 1501 1501 1500 1499 1499 1498 1498 1497 1497 1497 1497 1497 1497 1497 1498 1498 1498 1498 1498 1498 1499 1499
1508 1507 1507 1506 1505 1504 1504 1504 1504 1503 1503 1501 1500 1500 1499 1499 1498 1497 1496 1496 1495 1494 1494 1493 1493 1492 1492 1492 1493 1493 1493 1494 1494 1494 1494 1494 1494 1494
1505 1504 1503 1503 1502 1502 1501 1500 1500 1500 1499 1498 1497 1496 1496 1495 1494 1493 1492 1491 1491 1490 1490 1489 1489 1488 1488 1488 1488 1489 1489 1489 1489 1489 1489 1490 1490 1490
1502 1501 1501 1501 1500 1499 1498 1497 1497 1496 1495 1494 1493 1492 1492 1491 1490 1489 1488 1487 1486 1486 1485 1485 1485 1484 1484 1484 1484 1484 1484 1485 1485 1485 1485 1485 1485 1485
1499 1498 1498 1497 1496 1496 1495 1494 1494 1493 1492 1491 1490 1489 1488 1487 1487 1486 1485 1484 1482 1482 1481 1481 1481 1480 1480 1480 1480 1480 1480 1480 1480 1480 1480 1480 1480 1480
1496 1495 1494 1493 1492 1492 1491 1491 1490 1489 1489 1488 1486 1485 1484 1484 1483 1482 1481 1480 1479 1478 1478 1476 1477 1476 1476 1475 1476 1476 1476 1475 1475 1476 1476 1475 1475 1475
1492 1491 1490 1489 1489 1488 1487 1486 1485 1485 1484 1484 1483 1481 1481 1480 1480 1479 1478 1477 1476 1475 1474 1473 1472 1472 1471 1471 1471 1471 1471 1471 1471 1471 1471 1471 1471 1471
1488 1488 1487 1486 1485 1484 1483 1482 1481 1481 1480 1480 1479 1478 1477 1476 1476 1475 1474 1472 1471 1470 1470 1469 1468 1467 1467 1467 1467 1467 1467 1467 1467 1467 1466 1466 1466 1466
1484 1484 1483 1482 1481 1480 1479 1478 1476 1476 1476 1475 1474 1473 1472 1472 1471 1470 1469 1468 1467 1466 1465 1465 1464 1464 1462 1462 1462 1463 1462 1462 1463 1462 1462 1462 1461 1461
1480 1479 1478 1478 1477 1476 1475 1474 1473 1472 1472 1471 1469 1469 1468 1467 1466 1465 1464 1464 1463 1462 1462 1462 1461 1460 1460 1458 1458 1458 1458 1458 1458 1458 1458 1457 1457 1456
1476 1475 1474 1474 1473 1472 1471 1470 1469 1469 1468 1466 1465 1464 1463 1462 1462 1461 1460 1460 1459 1459 1458 1458 1456 1456 1455 1454 1453 1453 1453 1453 1453 1453 1453 1452 1452 1452
1472 1471 1470 1469 1468 1467 1467 1466 1465 1464 1463 1462 1461 1460 1460 1459 1458 1457 1456 1456 1455 1455 1454 1453 1452 1452 1451 1450 1448 1448 1448 1448 1448 1448 1448 1448 1448 1448
1468 1467 1466 1465 1464 1463 1463 1462 1461 1460 1459 1459 1458 1457 1456 1455 1454 1453 1452 1452 1451 1450 1450 1450 1449 1448 1446 1445 1445 1444 1444 1444 1444 1444 1444 1444 1444 1444
1463 1463 1462 1461 1460 1459 1459 1458 1457 1457 1456 1455 1454 1453 1452 1452 1451 1450 1449 1449 1448 1447 1446 1446 1445 1444 1443 1443 1441 1441 1440 1440 1440 1440 1440 1440 1440 1440
1459 1458 1457 1457 1456 1455 1455 1454 1454 1453 1452 1451 1451 1450 1449 1448 1447 1446 1446 1445 1445 1444 1443 1442 1441 1441 1441 1440 1440 1438 1437 1437 1437 1437 1437 1437 1436 1437
1455 1455 1454 1453 1453 1452 1452 1451 1450 1450 1449 1448 1447 1447 1446 1445 1444 1443 1442 1442 1441 1441 1441 1440 1439 1438 1437 1436 1436 1436 1435 1434 1434 1434 1434 1434 1433 1433
1452 1452 1451 1451 1450 1450 1449 1448 1447 1447 1446 1445 1444 1444 1443 1442 1441 1440 1440 1439 1439 1438 1438 1437 1437 1436 1435 1435 1433 1433 1433 1432 1432 1431 1431 1431 1431 1431
1449 1449 1448 1448 1448 1447 1447 1446 1445 1444 1443 1443 1442 1441 1440 1439 1437 1437 1436 1436 1436 1436 1435 1435 1435 1434 1433 1433 1432 1431 1431 1431 1430 1429 1429 1429 1428 1428
1446 1446 1446 1445 1445 1444 1444 1443 1443 1442 1441 1440 1439 1438 1437 1436 1435 1434 1434 1434 1433 1433 1433 1433 1433 1432 1431 1430 1429 1429 1429 1428 1428 1428 1428 1427 1427 1426
1443 1443 1443 1443 1442 1442 1442 1441 1440 1439 1438 1437 1436 1435 1435 1434 1433 1432 1432 1431 1431 1431 1430 1430 1430 1430 1429 1429 1428 1428 1427 1427 1426 1426 1426 1426 1426 1426